Regional Weather Roundup
Issued by NWS

Home | Current Version | Previous Version | Text Only | Print | Product List | Glossary Off
Versions: 1 2 3 4 5 6 7 8 9 10 11 12 13 14 15 16 17 18 19 20 21 22 23 24 25 26 27 28 29 30 31 32 33 34 35 36 37 38 39 40 41 42 43 44 45 46 47 48 49 50

000
ASUS43 KMKX 211300
RWRWI

WISCONSIN REGIONAL WEATHER ROUNDUP
NATIONAL WEATHER SERVICE MILWAUKEE/SULLIVAN WI
700 AM CST TUE FEB 21 2017

NOTE: "FAIR" INDICATES FEW OR NO CLOUDS BELOW 12,000 FEET WITH NO
SIGNIFICANT WEATHER AND/OR OBSTRUCTIONS TO VISIBILITY.

WIZ001-002-006>008-014>016-023>028-211400-
NORTHWEST WISCONSIN

CITY           SKY/WX    TMP DP  RH WIND       PRES   REMARKS
SUPERIOR ARPT  CLOUDY    35  33  94 SW10      29.83F WCI  27
ASHLAND        PTCLDY    35  33  92 SW12      29.83R WCI  27
HAYWARD        CLOUDY    36  33  89 SW8       29.86R WCI  30
SIREN          CLOUDY    35  34  97 S5        29.88S FOG     WCI  31
CUMBERLAND     CLOUDY    34  32  93 W5        29.87F FOG     WCI  30
RICE LAKE      CLOUDY    35  34  96 S6        29.90S FOG     WCI  30
CHETEK         CLOUDY    35  34  97 CALM      29.89S
LADYSMITH      MOCLDY    37  35  94 SW3       29.89S
EAU CLAIRE     NOT AVBL
MENOMONIE      CLOUDY    37  36  95 S3        29.91S FOG
NEW RICHMOND   FOG       34  34 100 S6        29.89F VSB 1/4 WCI  29
OSCEOLA        NOT AVBL
$$

WIZ003>005-009-010-017-018-211400-
NORTH CENTRAL WISCONSIN

CITY           SKY/WX    TMP DP  RH WIND       PRES   REMARKS
MANITOWISH WTR CLOUDY    35  35 100 W9        29.82R WCI  28
ARBOR VITAE    PTCLDY    37  35  94 SW6       29.83R WCI  32
WOODRUFF       PTCLDY    37  35  94 SW6       29.83R WCI  32
RHINELANDER    MOCLDY    38  37  97 W12       29.84R WCI  30
EAGLE RIVER    PTCLDY    38  37  99 W8        29.81R WCI  32
LAND O LAKES   CLEAR     38  37  96 W5        29.82R WCI  34
PHILLIPS       CLOUDY    36  36 100 W6        29.85R WCI  31
TOMAHAWK       PTCLDY    37  35  93 W5        29.85S WCI  33
MEDFORD        CLOUDY    37  35  93 W7        29.87S WCI  31
MERRILL        NOT AVBL
$$

WIZ029-030-035-036-043>047-211400-
CENTRAL WISCONSIN

CITY           SKY/WX    TMP DP  RH WIND       PRES   REMARKS
WAUSAU         CLOUDY    39  36  89 W7        29.86R WCI  34
MOSINEE        NOT AVBL
MARSHFIELD     CLOUDY    38  36  92 W6        29.89R WCI  33
STEVENS POINT  CLOUDY    40  38  94 W8        29.89R WCI  35
WAUPACA        CLOUDY    45  41  85 W12       29.89R
WAUTOMA        CLOUDY    44  41  89 W9        29.91R
WISC RAPIDS    CLOUDY    42  40  92 W5        29.91R
CAMP DOUGLAS   NOT AVBL
$$

WIZ011>013-019>022-031-037>040-048>050-211400-
NORTHEAST WISCONSIN

CITY           SKY/WX    TMP DP  RH WIND       PRES   REMARKS
ANTIGO         CLOUDY    39  38  97 W12       29.85R WCI  32
SHAWANO        PTCLDY    46  42  85 W6        29.86R
OCONTO         CLEAR     45  43  92 W7        29.83R
STURGEON BAY   CLEAR     47  45  93 W9        29.83R
GREEN BAY      CLEAR     46  44  93 W10       29.86R
MANITOWOC      NOT AVBL
APPLETON       MOCLDY    45  43  93 W13       29.85R
CLINTONVILLE   CLOUDY    43  41  93 W7        29.87R
OSHKOSH        CLOUDY    46  42  86 W6        29.88R
$$

WIZ032>034-041-042-053>061-211400-
SOUTHWEST WISCONSIN

CITY           SKY/WX    TMP DP  RH WIND       PRES   REMARKS
LA CROSSE      CLOUDY    38  36  92 CALM      29.93S
SPARTA         CLOUDY    40  39  95 CALM      29.93S
VIROQUA          N/A     36  36 100 W5        29.92S WCI  32
BOSCOBEL       FOG       35  34  96 CALM      29.94R VSB 1/4
PRAIRIE DU CHI   N/A     35  34  96 CALM      29.95R FOG
PLATTEVILLE    CLEAR     38  38 100 W6        29.92S WCI  34
$$

WIZ056-057-062-063-064-067-068-211400-
SOUTH CENTRAL WISCONSIN

CITY           SKY/WX    TMP DP  RH WIND       PRES   REMARKS
REEDSBURG      CLOUDY    42  42 100 W6        29.92R
BARABOO/DELLS  PTCLDY    40  39  96 CALM      29.91R FOG
LONE ROCK      PTCLDY    40  39  97 SW3       29.94R FOG
MINERAL POINT  CLEAR     41  41 100 W6        29.92S FOG
MADISON        MOCLDY    44  43  96 CALM      29.90R
MIDDLETON        N/A     44  44 100 W6        29.92R
WATERTOWN      CLOUDY    48  48 100 W7        29.89R
MONROE         MOCLDY    43  43 100 W10       29.92R
JANESVILLE     PTCLDY    48  48 100 W6        29.91R
$$

WIZ051-052-058>065-066-070>072-211400-
SOUTHEAST WISCONSIN

CITY           SKY/WX    TMP DP  RH WIND       PRES   REMARKS
MILWAUKEE      CLOUDY    55  52  89 SW7       29.88S FOG
WAUKESHA       CLOUDY    52  52 100 W8        29.89R FOG
MILWAUKEE/TIMM CLOUDY    54  50  87 SW8       29.87F
RACINE         CLOUDY    55  52  89 W9        29.90S
KENOSHA        CLOUDY    54  52  93 SW13      29.89S FOG
FOND DU LAC    CLOUDY    46  40  79 W10       29.89R
SHEBOYGAN      MOCLDY    48  43  82 W8        29.88R
WEST BEND      CLOUDY    48  46  93 W9        29.87R
JUNEAU         PTCLDY    45  43  94 W5        29.90R
$$

LSZ147-162-211400-
LAKE SUPERIOR

STATION/POSITION TIME  TEMP    WIND        PRES    WAVE
                       AIR SEA DIR/SP/G            HT/PER
                 (UTC) (F)     (DEG/KT/KT) (MB)    (FT/S)
DEVILS ISLAND    1200   35     230/ 21/ 23 1009.2R
PORT WING        1240   35     220/  4/  5 1010.2S
SAXON HARBOR     1230   39     200/ 10/ 17 1009.1F
$$

LMZ867-665-643>646-211400-
LAKE MICHIGAN

STATION/POSITION TIME  TEMP    WIND        PRES    WAVE
                       AIR SEA DIR/SP/G            HT/PER
                 (UTC) (F)     (DEG/KT/KT) (MB)    (FT/S)
CHAMBERS ISLAND  1240   48     200/  7/ 13 1008.8R
NORTHPORT PIER   1240   50     250/  5/ 11 1008.5S
KEWAUNEE LAKESHO 1230   49     270/  7/  9 1009.4R
SHEBOYGAN LAKESH 1200   48     200/  6/  6 1011.0R
PORT WASHINGTON  1230   55     260/  3/ 10 1011.9F
MILWAUKEE LAKESH 1230   56     270/  7/  9   N/A
KENOSHA   LAKESH 1200   54     220/  6/  8 1011.9
$$

TC  - TEMPERATURE IN CELSIUS
VSB - VISIBILITY IN STATUTE MILES
WCI - WIND CHILL INDEX
HX  - HEAT INDEX





USA.gov is the U.S. government's official web portal to all federal, state and local government web resources and services.